This is the latest recevied weather packets stored in our database for station/object N2ZVN. If no packets are shown the sender has not sent any weather packets the latest 10 day(s).
| Time | Temp. | Humidity | Pressure | Rain* | Wind** | Luminosity | Snow |
|---|---|---|---|---|---|---|---|
| 1777931566 | 23.33° C | 31% | 1003 hPa | 0 mm | - | 136 W/m² | - |
| 1777931262 | 23.33° C | 29% | 1003 hPa | 0 mm | - | 114 W/m² | - |
| 1777930958 | 23.33° C | 29% | 1003.2 hPa | 0 mm | - | 94 W/m² | - |
| 1777930655 | 22.78° C | 30% | 1003.1 hPa | 0 mm | - | 140 W/m² | - |
| 1777930352 | 23.33° C | 29% | 1003.2 hPa | 0 mm | - | 92 W/m² | - |
| 1777930049 | 23.33° C | 30% | 1003 hPa | 0 mm | - | 106 W/m² | - |
| 1777929745 | 23.33° C | 29% | 1003.2 hPa | 0 mm | - | 99 W/m² | - |
| 1777929443 | 23.33° C | 29% | 1003.3 hPa | 0 mm | - | 125 W/m² | - |
| 1777929139 | 23.33° C | 29% | 1003.3 hPa | 0 mm | - | 191 W/m² | - |
| 1777928837 | 23.33° C | 30% | 1003.3 hPa | 0 mm | - | 219 W/m² | - |
| 1777928534 | 23.33° C | 31% | 1003.2 hPa | 0 mm | - | 276 W/m² | - |
| 1777928231 | 23.33° C | 30% | 1003.2 hPa | 0 mm | - | 108 W/m² | - |
| 1777927928 | 23.33° C | 31% | 1003.1 hPa | 0 mm | - | 139 W/m² | - |
| 1777927626 | 23.33° C | 31% | 1003.3 hPa | 0 mm | - | 272 W/m² | - |
| 1777927325 | 23.33° C | 32% | 1003.1 hPa | 0 mm | - | 163 W/m² | - |
| 1777927023 | 23.33° C | 32% | 1003.4 hPa | 0 mm | - | 121 W/m² | - |
| 1777926721 | 23.89° C | 32% | 1003.2 hPa | 0 mm | - | 104 W/m² | - |
| 1777926420 | 23.33° C | 34% | 1003.5 hPa | 0 mm | - | 124 W/m² | - |
| 1777926118 | 22.78° C | 33% | 1003.4 hPa | 0 mm | - | 157 W/m² | - |
| 1777925814 | 22.78° C | 33% | 1003.6 hPa | 0 mm | - | 194 W/m² | - |
| 1777925512 | 22.78° C | 33% | 1003.5 hPa | 0 mm | - | 96 W/m² | - |
| 1777925209 | 22.78° C | 32% | 1003.7 hPa | 0 mm | - | 262 W/m² | - |
| 1777924906 | 23.33° C | 32% | 1003.4 hPa | 0 mm | - | 475 W/m² | - |
| 1777924602 | 23.33° C | 36% | 1003.8 hPa | 0 mm | - | 251 W/m² | - |
| 1777924298 | 22.78° C | 35% | 1003.9 hPa | 0 mm | - | 79 W/m² | - |
* Rain latest hour (hover to see other rain measurements)
** Current wind speed in m/s (hover to see current wind gust speed)